This is the latest recevied weather packets stored in our database for station/object SP5IZJ-2. If no packets are shown the sender has not sent any weather packets the latest 10 day(s).
| Time | Temp. | Humidity | Pressure | Rain* | Wind** | Luminosity | Snow |
|---|---|---|---|---|---|---|---|
| 1777258763 | 1.11° C | 57% | 1015.7 hPa | 0 mm | - | - | - |
| 1777257931 | 0.56° C | 57% | 1015.8 hPa | 0 mm | - | - | - |
| 1777257503 | 0.56° C | 57% | 1015.7 hPa | 0 mm | - | - | - |
| 1777257080 | 0.56° C | 57% | 1015.6 hPa | 0 mm | - | - | - |
| 1777256660 | 0.56° C | 58% | 1015.7 hPa | 0 mm | - | - | - |
| 1777256240 | 0.56° C | 58% | 1015.8 hPa | 0 mm | - | - | - |
| 1777254984 | 0° C | 58% | 1016 hPa | 0 mm | - | - | - |
| 1777254561 | 0° C | 59% | 1016 hPa | 0 mm | - | - | - |
| 1777254141 | 0° C | 59% | 1016 hPa | 0 mm | - | - | - |
| 1777253729 | -0.56° C | 60% | 1016 hPa | 0 mm | - | - | - |
| 1777253301 | -1.11° C | 61% | 1015.9 hPa | 0 mm | - | - | - |
| 1777252881 | -1.67° C | 60% | 1016 hPa | 0 mm | - | - | - |
| 1777252469 | -1.67° C | 60% | 1015.9 hPa | 0 mm | - | - | - |
| 1777252042 | -1.67° C | 60% | 1016 hPa | 0 mm | - | - | - |
| 1777251626 | -2.22° C | 60% | 1016 hPa | 0 mm | - | - | - |
| 1777251202 | -2.22° C | 60% | 1016 hPa | 0 mm | - | - | - |
| 1777250782 | -2.22° C | 59% | 1016.2 hPa | 0 mm | - | - | - |
| 1777250362 | -2.22° C | 59% | 1016.2 hPa | 0 mm | - | - | - |
| 1777249942 | -2.22° C | 58% | 1016.1 hPa | 0 mm | - | - | - |
| 1777249530 | -2.22° C | 59% | 1016.3 hPa | 0 mm | - | - | - |
| 1777249122 | -2.22° C | 58% | 1016.2 hPa | 0 mm | - | - | - |
| 1777248683 | -1.67° C | 57% | 1016.2 hPa | 0 mm | - | - | - |
| 1777248263 | -1.67° C | 58% | 1016.2 hPa | 0 mm | - | - | - |
| 1777247847 | -1.67° C | 58% | 1016.4 hPa | 0 mm | - | - | - |
| 1777247427 | -2.22° C | 59% | 1016.4 hPa | 0 mm | - | - | - |
* Rain latest hour (hover to see other rain measurements)
** Current wind speed in m/s (hover to see current wind gust speed)